Flag for U.S.A. Weather past 2 weeks in Temple, Texas, U.S.A.

Now
29 °F

Freezing rain. Ice fog.


Feels Like: 20 °F
Forecast: 35 / 44 °F
Wind: 10 mph from Northeast

Location: Fort Hood AAF Airport

Current Time: Feb 27, 2015 at 6:57:47 PM

Latest Report: Feb 27, 2015 at 5:58 PM


Visibility: 1 mi

Pressure: 30.36 "Hg

Humidity: 96%

Dew point: 28 °F

Location of TempleLocation

Historic Weather in Temple — Graph

°F

Temple temperature yesterday

Maximum temperature yesterday: 40 °F (at 10:58 AM)
Minimum temperature yesterday: 33 °F (at 6:58 AM)
Average temperature yesterday: 36 °F

Past Weeks' High & Low Weather Summary

 TemperatureHumidityPressure
High78 °F (Feb 14, 3:58 PM)100% (Feb 16, 5:59 AM)30.52 "Hg (Feb 16, 5:59 AM)
Low27 °F (Feb 23, 8:04 PM)22% (Feb 18, 3:58 PM)29.71 "Hg (Feb 20, 4:58 PM)
Average46 °F74%30.14 "Hg
* Reported Feb 12 4:58 PM — Feb 27 4:57 PM, Temple, Weather by CustomWeather, © 2015

Note: Actual official high and low records may vary slightly from our data, if they occured in-between our weather recording intervals... More about our weather records

Advertising

Temple weather history for previous 24 hours

 ConditionsComfort  
Time TempWeatherWind HumidityBarometerVisibility
4:57 PM
Fri, Feb 27
29 °FLight freezing rain. Ice fog.13 mph96%30.35 "Hg1 mi
3:57 PM29 °FLight freezing rain. Ice fog.10 mph94%30.35 "Hg1 mi
2:58 PM29 °FOvercast.10 mph82%30.35 "Hg8 mi
1:58 PM29 °FOvercast.12 mph77%30.37 "Hg7 mi
12:58 PM30 °FMostly cloudy.10 mph75%30.40 "Hg8 mi
11:58 AM31 °FMostly cloudy.10 mph68%30.42 "Hg9 mi
10:58 AM30 °FMostly cloudy.13 mph65%30.43 "Hg9 mi
9:58 AM30 °FOvercast.10 mph64%30.44 "Hg9 mi
8:58 AM29 °FOvercast.8 mph65%30.43 "Hg10 mi
7:58 AM29 °FOvercast.10 mph65%30.42 "Hg10 mi
6:58 AM29 °FOvercast.9 mph64%30.40 "Hg10 mi
5:58 AM30 °FMostly cloudy.12 mph64%30.36 "Hg10 mi
4:58 AM30 °FMostly cloudy.13 mph62%30.34 "Hg10 mi
3:58 AM31 °FOvercast.13 mph61%30.34 "Hg10 mi
2:58 AM33 °FLight rain. Overcast.10 mph61%30.36 "Hg8 mi
1:58 AM33 °FLight rain. Mostly cloudy.14 mph57%30.37 "Hg8 mi
12:58 AM34 °FOvercast.12 mph57%30.38 "Hg10 mi
11:58 PM
Thu, Feb 26
34 °FOvercast.8 mph60%30.37 "Hg10 mi
10:58 PM34 °FOvercast.14 mph58%30.36 "Hg10 mi
9:58 PM34 °FMostly cloudy.13 mph59%30.37 "Hg10 mi
8:58 PM35 °FOvercast.15 mph57%30.36 "Hg10 mi
6:58 PM36 °FOvercast.15 mph58%30.32 "Hg10 mi
Weather by CustomWeather, © 2015

See weather overviewHow to use our weather pages